Location: Austin
(30.3000°N, 97.7500°W)
Time: 11:15:08
(UTC-05:00)

Tiangong - Visible Passes

Search period start: 14 July 2024 00:00
Search period end: 24 July 2024 00:00
Orbit: 373 x 378 km, 41.5° (Epoch: 13 July)

Date Brightness Start Highest point End Pass type
(mag) Time Alt. Az. Time Alt. Az. Time Alt. Az.
14 Jul 0.1 04:30:45 21° N 04:30:45 21° N 04:32:50 10° NNE visible
14 Jul 0.8 06:06:56 10° NNW 06:07:45 11° N 06:08:33 10° NNE visible
15 Jul 0.7 05:03:29 10° NW 05:04:52 12° N 05:06:15 10° NNE visible
16 Jul 1.0 04:03:09 14° N 04:03:09 14° N 04:04:01 10° NNE visible
16 Jul 1.0 05:38:45 10° NNW 05:39:28 11° N 05:40:11 10° NNE visible
17 Jul 0.9 04:35:32 10° NNW 04:36:26 11° N 04:37:20 10° NNE visible
17 Jul 0.8 06:12:13 10° NNW 06:13:58 14° NNE 06:15:43 10° NE visible
18 Jul 1.0 05:09:48 10° NNW 05:10:54 11° N 05:11:59 10° NNE visible
19 Jul 1.2 04:07:37 10° N 04:07:45 10° N 04:08:25 10° NNE visible
19 Jul 0.7 05:42:57 10° NNW 05:45:11 18° NNE 05:47:24 10° ENE visible
20 Jul 0.9 04:40:26 10° NNW 04:42:01 13° NNE 04:43:37 10° NE visible
20 Jul -0.9 06:16:09 10° NW 06:19:09 44° NNE 06:22:07 10° ESE visible
21 Jul 0.1 05:13:26 10° NW 05:16:04 24° NNE 05:18:41 10° E visible
22 Jul 0.8 04:13:07 16° NNE 04:13:07 16° NNE 04:14:54 10° ENE visible
22 Jul -2.1 05:46:39 10° WNW 05:49:44 81° NNE 05:52:50 10° ESE visible
23 Jul -0.8 04:46:21 36° NNE 04:46:36 37° NNE 04:49:31 10° E visible
23 Jul -0.2 21:13:39 10° SSE 21:15:10 13° SE 21:15:12 13° SE visible
